{"data":{"norad_id":43272,"intl_designator":"2018-033B","name":"HYLAS 4","alt_names":[],"object_type":"PAYLOAD","status":"ACTIVE","operator":null,"country":"UK","launch_date":"2018-04-05","launch_site_code":"FRGUI","launch_vehicle":null,"mission":null,"orbit_class":"UNKNOWN","rcs_meters":null,"size_class":null,"mass_kg":null,"dimensions":null,"purposes":["comms"],"wikipedia_slug":null,"has_3d_model":false,"image_url":null,"decayed_at":null,"tle_current":{"epoch":"2026-09-19T20:14:02.545728Z","epoch_age_seconds":82593,"freshness":"FRESH","line1":"1 43272U 18033B   26262.84308502 -.00000238  00000+0  00000+0 0  9993","line2":"2 43272   0.0834 269.9567 0000973 269.4360  89.3671  1.00273438 31015","mean_motion":1.00273438,"eccentricity":9.73e-5,"inclination_deg":0.0834,"raan_deg":269.9567,"arg_perigee_deg":269.436,"mean_anomaly_deg":89.3671,"bstar":0,"rev_number":3101,"period_min":1436.0732300811,"perigee_km":35782.028988319,"apogee_km":35790.234154983,"semimajor_km":42164.268571651,"source":"CELESTRAK","updated_at":"2026-09-20T09:00:35.259459Z"}}}